Regional Weather Roundup
Issued by NWS

Home | Current Version | Previous Version | Graphics & Text | Print | Product List | Glossary On
Versions: 1 2 3 4 5 6 7 8 9 10 11 12 13 14 15 16 17 18 19 20 21 22 23 24 25 26 27 28 29 30 31 32 33 34 35 36 37 38 39 40 41 42 43 44 45 46 47 48 49 50
000
ASUS45 KABQ 311101
RWRNM
NEW MEXICO REGIONAL WEATHER ROUNDUP
NATIONAL WEATHER SERVICE ALBUQUERQUE NM
500 AM MDT FRI JUL 31 2015

NOTE: "FAIR" MEANS FEW OR NO CLOUDS BELOW 12,000 FEET AGL WITH NO
       SIGNIFICANT WEATHER OR OBSTRUCTIONS TO VISION.

      THIS PRODUCT IS RELEASED AS TWO VERSIONS.  ONE VERSION NEAR
      THE TOP OF THE HOUR CONTAINING PRELIMINARY DATA FROM ALBUQUERQUE
      AND OTHER STATIONS.  A FINAL VERSION WITH ADDITIONAL DATA IS
      ISSUED ABOUT 10 MINUTES AFTER THE HOUR.

NMZ501-503-504-510>518-311200-
NORTHWEST PLATEAU/NORTHCENTRAL MOUNTAINS

CITY           SKY/WX    TMP DP  RH WIND       PRES   REMARKS
FARMINGTON     MOCLDY    62  60  93 E9        30.33F
SANTA FE       CLOUDY    63  58  83 SE5       30.42R
TAOS           MOCLDY    55  45  67 E5        30.48S

$$
NMZ402-403-502-505>509-311200-
WESTCENTRAL MOUNTAINS/SOUTHWEST MOUNTAINS

CITY           SKY/WX    TMP DP  RH WIND       PRES   REMARKS
GALLUP         CLOUDY    60  56  86 CALM      30.39S
SILVER CITY      N/A     64  63  94 SE9       30.36S

$$
NMZ407-409-411-412-311200-
SOUTHERN DESERTS

CITY           SKY/WX    TMP DP  RH WIND       PRES   REMARKS
DEMING         LGT RAIN  66  61  84 SE5       30.27S
HOLLOMAN AFB   CLOUDY    74  61  62 N3        30.24S
ALAMOGORDO     LGT RAIN  70  63  78 NW6       30.26S
T OR C         LGT RAIN  68  64  87 CALM      30.31R

$$
NMZ519>523-311200-
CENTRAL VALLEYS/CENTRAL HIGHLANDS

CITY           SKY/WX    TMP DP  RH WIND       PRES   REMARKS
ALBUQUERQUE    CLOUDY    68  60  75 N7        30.35R
DOUBLE EAGLE   CLOUDY    63  60  89 N6        30.38R
CLINES CORNERS NOT AVBL
BELEN          FAIR      67  59  76 CALM      30.33S
SOCORRO        NOT AVBL

$$
NMZ524>526-539-540-311200-
SOUTHCENTRAL MOUNTAINS

CITY           SKY/WX    TMP DP  RH WIND       PRES   REMARKS
RUIDOSO          N/A    N/A N/A N/A MISG        N/A

$$
NMZ527>531-311200-
NORTHEAST HIGHLANDS/NORTHEAST PLAINS

CITY           SKY/WX    TMP DP  RH WIND       PRES   REMARKS
LAS VEGAS      CLOUDY    59  58  96 S7        30.45F
RATON          MOCLDY    58  56  93 NW5       30.40F
CLAYTON        MOCLDY    65  62  90 SW7       30.32R

$$
NMZ532>537-311200-
EASTCENTRAL PLAINS

CITY           SKY/WX    TMP DP  RH WIND       PRES   REMARKS
TUCUMCARI      LGT RAIN  68  66  93 SW7       30.29S
CANNON AFB     CLOUDY    68  63  84 N8        30.30R
CLOVIS AIRPORT CLOUDY    66  63  88 N10       30.32S

$$
NMZ028-029-538-311200-
SOUTHEAST PLAINS

CITY           SKY/WX    TMP DP  RH WIND       PRES   REMARKS
ROSWELL        PTCLDY    70  64  81 N8        30.23F
ARTESIA        PTCLDY    70  66  88 N10       30.23F
CARLSBAD       PTCLDY    74  64  71 NW12      30.19S
HOBBS          PTCLDY    68  63  83 CALM      30.22S


$$


USA.gov is the U.S. government's official web portal to all federal, state and local government web resources and services.